Time,TemperatureF,DewpointF,PressureIn,WindDirection,WindDirectionDegrees,WindSpeedMPH,WindSpeedGustMPH,Humidity,HourlyPrecipIn,Conditions,Clouds,dailyrainin,SoftwareType,DateUTC
2013-01-10 00:02:00,73.0,68.0,30.00,ENE,58,7.0,11.0,84,0.00,,,0.86,,2013-01-10 10:02:00,
2013-01-10 00:11:00,73.0,68.0,30.00,ENE,58,7.0,11.0,84,0.00,,,0.86,,2013-01-10 10:11:00,
2013-01-10 00:22:00,73.0,68.0,29.99,ENE,65,5.0,10.0,85,0.00,,,0.69,,2013-01-10 10:22:00,
2013-01-10 00:32:00,72.0,67.0,29.99,ENE,65,6.0,10.0,83,0.00,,,0.69,,2013-01-10 10:32:00,
2013-01-10 00:42:00,72.0,67.0,29.99,ENE,65,6.0,10.0,83,0.00,,,0.69,,2013-01-10 10:42:00,
2013-01-10 00:52:00,73.0,68.0,29.99,ENE,64,4.0,7.0,85,0.00,,,0.69,,2013-01-10 10:52:00,
2013-01-10 01:02:00,73.0,68.0,29.99,ENE,62,2.0,6.0,85,0.00,,,0.69,,2013-01-10 11:02:00,
2013-01-10 01:12:00,73.0,68.0,29.99,ENE,62,2.0,6.0,85,0.00,,,0.69,,2013-01-10 11:12:00,
2013-01-10 01:22:00,73.0,68.0,29.99,NE,34,4.0,7.0,85,0.00,,,0.67,,2013-01-10 11:22:00,
2013-01-10 01:32:00,73.0,68.0,29.99,ENE,64,5.0,9.0,85,0.00,,,0.67,,2013-01-10 11:32:00,
2013-01-10 01:42:00,73.0,68.0,29.99,ENE,64,5.0,9.0,85,0.00,,,0.67,,2013-01-10 11:42:00,
2013-01-10 01:53:00,73.0,68.0,29.99,East,89,2.0,7.0,85,0.00,,,0.67,,2013-01-10 11:53:00,
2013-01-10 02:02:00,71.0,66.0,29.98,WSW,251,1.0,3.0,84,0.00,,,0.67,,2013-01-10 12:02:00,
2013-01-10 02:12:00,71.0,66.0,29.98,WSW,251,1.0,3.0,84,0.00,,,0.67,,2013-01-10 12:12:00,
2013-01-10 02:22:00,69.0,65.0,29.98,West,262,1.0,3.0,86,0.00,,,0.63,,2013-01-10 12:22:00,
2013-01-10 02:32:00,69.0,65.0,29.98,West,278,2.0,4.0,88,0.00,,,0.63,,2013-01-10 12:32:00,
2013-01-10 02:42:00,69.0,65.0,29.98,West,278,2.0,4.0,88,0.00,,,0.63,,2013-01-10 12:42:00,
2013-01-10 02:53:00,69.0,66.0,29.98,WSW,241,1.0,8.0,89,0.00,,,0.63,,2013-01-10 12:53:00,
2013-01-10 03:02:00,68.0,65.0,29.98,NW,306,1.0,3.0,90,0.00,,,0.63,,2013-01-10 13:02:00,
2013-01-10 03:11:00,68.0,65.0,29.98,NW,306,1.0,3.0,90,0.00,,,0.63,,2013-01-10 13:11:00,
2013-01-10 03:22:00,68.0,65.0,29.97,West,275,1.0,3.0,90,0.01,,,0.61,,2013-01-10 13:22:00,
2013-01-10 03:32:00,68.0,65.0,29.96,WNW,291,1.0,9.0,91,0.01,,,0.61,,2013-01-10 13:32:00,
2013-01-10 03:42:00,68.0,65.0,29.96,WNW,291,1.0,9.0,91,0.01,,,0.61,,2013-01-10 13:42:00,
2013-01-10 03:53:00,68.0,65.0,29.96,West,276,1.0,4.0,91,0.01,,,0.61,,2013-01-10 13:53:00,
2013-01-10 04:02:00,67.0,65.0,29.96,SW,232,2.0,4.0,92,0.01,,,0.61,,2013-01-10 14:02:00,
2013-01-10 04:12:00,67.0,65.0,29.96,SW,232,2.0,4.0,92,0.01,,,0.61,,2013-01-10 14:12:00,
2013-01-10 04:22:00,67.0,65.0,29.96,West,268,2.0,5.0,92,0.00,,,0.60,,2013-01-10 14:22:00,
2013-01-10 04:32:00,67.0,65.0,29.96,SW,220,0.0,4.0,93,0.00,,,0.60,,2013-01-10 14:32:00,
2013-01-10 04:43:00,67.0,65.0,29.96,SW,220,0.0,4.0,93,0.00,,,0.60,,2013-01-10 14:43:00,
2013-01-10 04:53:00,67.0,65.0,29.97,WSW,238,1.0,4.0,93,0.00,,,0.60,,2013-01-10 14:53:00,
2013-01-10 05:02:00,67.0,65.0,29.97,West,274,0.0,3.0,93,0.00,,,0.60,,2013-01-10 15:02:00,
2013-01-10 05:12:00,67.0,65.0,29.97,West,274,0.0,3.0,93,0.00,,,0.60,,2013-01-10 15:12:00,
2013-01-10 05:22:00,67.0,65.0,29.97,WSW,245,1.0,4.0,93,0.00,,,0.57,,2013-01-10 15:22:00,
2013-01-10 05:32:00,66.0,64.0,29.97,West,273,2.0,4.0,93,0.00,,,0.57,,2013-01-10 15:32:00,
2013-01-10 05:43:00,66.0,64.0,29.97,West,273,2.0,4.0,93,0.00,,,0.57,,2013-01-10 15:43:00,
2013-01-10 05:53:00,66.0,64.0,29.98,WSW,245,3.0,6.0,94,0.07,,,0.64,,2013-01-10 15:53:00,
2013-01-10 06:02:00,66.0,64.0,29.98,West,274,1.0,7.0,94,0.07,,,0.64,,2013-01-10 16:02:00,
2013-01-10 06:12:00,66.0,64.0,29.98,West,274,1.0,7.0,94,0.07,,,0.64,,2013-01-10 16:12:00,
2013-01-10 06:22:00,66.0,64.0,29.98,WSW,252,2.0,4.0,94,0.07,,,0.61,,2013-01-10 16:22:00,
2013-01-10 06:32:00,66.0,64.0,29.99,NW,310,2.0,3.0,94,0.07,,,0.61,,2013-01-10 16:32:00,
2013-01-10 06:42:00,66.0,64.0,29.99,NW,310,2.0,3.0,94,0.07,,,0.61,,2013-01-10 16:42:00,
2013-01-10 06:53:00,66.0,64.0,29.99,WNW,300,2.0,4.0,94,0.00,,,0.61,,2013-01-10 16:53:00,
2013-01-10 07:02:00,66.0,65.0,29.99,NW,311,1.0,4.0,95,0.00,,,0.61,,2013-01-10 17:02:00,
2013-01-10 07:12:00,66.0,65.0,29.99,NW,311,1.0,4.0,95,0.00,,,0.61,,2013-01-10 17:12:00,
2013-01-10 07:22:00,66.0,65.0,30.00,West,274,2.0,5.0,95,0.00,,,0.57,,2013-01-10 17:22:00,
2013-01-10 07:33:00,66.0,65.0,30.00,WNW,295,1.0,5.0,95,0.00,,,0.57,,2013-01-10 17:33:00,
2013-01-10 07:42:00,66.0,65.0,30.00,WNW,295,1.0,5.0,95,0.00,,,0.57,,2013-01-10 17:42:00,
2013-01-10 07:53:00,66.0,65.0,30.00,WSW,247,2.0,4.0,95,0.00,,,0.57,,2013-01-10 17:53:00,
2013-01-10 08:02:00,66.0,65.0,30.01,West,281,2.0,5.0,95,0.04,,,0.61,,2013-01-10 18:02:00,
2013-01-10 08:12:00,67.0,66.0,30.02,WNW,297,1.0,5.0,95,0.04,,,0.56,,2013-01-10 18:12:00,
2013-01-10 08:22:00,67.0,66.0,30.02,WNW,297,1.0,5.0,95,0.04,,,0.56,,2013-01-10 18:22:00,
2013-01-10 08:32:00,67.0,66.0,30.02,West,274,1.0,4.0,95,0.04,,,0.56,,2013-01-10 18:32:00,
2013-01-10 08:43:00,67.0,66.0,30.03,SW,224,1.0,4.0,95,0.14,,,0.66,,2013-01-10 18:43:00,
2013-01-10 08:53:00,67.0,66.0,30.03,SW,224,1.0,4.0,95,0.14,,,0.66,,2013-01-10 18:53:00,
2013-01-10 09:02:00,68.0,67.0,30.04,West,267,2.0,3.0,96,0.11,,,0.67,,2013-01-10 19:02:00,
2013-01-10 09:12:00,69.0,68.0,30.04,West,271,1.0,4.0,96,0.11,,,0.59,,2013-01-10 19:12:00,
2013-01-10 09:22:00,69.0,68.0,30.04,West,271,1.0,4.0,96,0.11,,,0.59,,2013-01-10 19:22:00,
2013-01-10 09:32:00,70.0,68.0,30.04,WSW,251,2.0,7.0,95,0.11,,,0.59,,2013-01-10 19:32:00,
2013-01-10 09:42:00,70.0,68.0,30.04,WSW,251,2.0,7.0,95,0.11,,,0.59,,2013-01-10 19:42:00,
2013-01-10 09:53:00,71.0,69.0,30.04,West,270,0.0,4.0,95,0.01,,,0.59,,2013-01-10 19:53:00,
2013-01-10 10:02:00,71.0,69.0,30.04,West,270,1.0,6.0,94,0.00,,,0.59,,2013-01-10 20:02:00,
2013-01-10 10:12:00,71.0,69.0,30.04,West,270,1.0,6.0,94,0.00,,,0.59,,2013-01-10 20:12:00,
2013-01-10 10:22:00,71.0,69.0,30.04,NW,304,4.0,6.0,92,0.00,,,0.37,,2013-01-10 20:22:00,
2013-01-10 10:32:00,73.0,70.0,30.03,ENE,60,1.0,4.0,91,0.00,,,0.37,,2013-01-10 20:32:00,
2013-01-10 10:42:00,73.0,70.0,30.03,ENE,60,1.0,4.0,91,0.00,,,0.37,,2013-01-10 20:42:00,
2013-01-10 10:53:00,73.0,70.0,30.02,NW,305,2.0,4.0,89,0.00,,,0.37,,2013-01-10 20:53:00,
2013-01-10 11:02:00,75.0,71.0,30.02,NW,323,3.0,6.0,87,0.00,,,0.37,,2013-01-10 21:02:00,
2013-01-10 11:12:00,75.0,71.0,30.02,NW,323,3.0,6.0,87,0.00,,,0.37,,2013-01-10 21:12:00,
2013-01-10 11:22:00,75.0,70.0,30.02,NNE,32,4.0,7.0,84,0.00,,,0.35,,2013-01-10 21:22:00,
2013-01-10 11:32:00,76.0,70.0,30.01,NE,46,3.0,6.0,82,0.00,,,0.35,,2013-01-10 21:32:00,
2013-01-10 11:42:00,76.0,70.0,30.01,NE,46,3.0,6.0,82,0.00,,,0.35,,2013-01-10 21:42:00,
2013-01-10 11:53:00,76.0,69.0,30.01,East,81,4.0,7.0,80,0.00,,,0.35,,2013-01-10 21:53:00,
2013-01-10 12:02:00,76.0,69.0,30.00,NE,40,3.0,11.0,80,0.00,,,0.35,,2013-01-10 22:02:00,
2013-01-10 12:12:00,76.0,69.0,29.99,NE,37,4.0,7.0,80,0.00,,,0.26,,2013-01-10 22:12:00,
2013-01-10 12:23:00,76.0,69.0,29.99,NE,37,4.0,7.0,80,0.00,,,0.26,,2013-01-10 22:23:00,
2013-01-10 12:32:00,76.0,69.0,29.98,ENE,71,4.0,7.0,79,0.00,,,0.26,,2013-01-10 22:32:00,
2013-01-10 12:42:00,76.0,69.0,29.98,ENE,71,4.0,7.0,79,0.00,,,0.26,,2013-01-10 22:42:00,
2013-01-10 13:02:00,76.0,69.0,29.97,NNE,26,5.0,7.0,78,0.00,,,0.26,,2013-01-10 23:02:00,
2013-01-10 13:12:00,76.0,69.0,29.97,NNE,26,5.0,7.0,78,0.00,,,0.26,,2013-01-10 23:12:00,
2013-01-10 13:22:00,76.0,69.0,29.96,NE,41,4.0,6.0,78,0.00,,,0.24,,2013-01-10 23:22:00,
2013-01-10 13:32:00,76.0,69.0,29.96,NE,41,6.0,8.0,78,0.00,,,0.24,,2013-01-10 23:32:00,
2013-01-10 13:42:00,76.0,69.0,29.96,NE,41,6.0,8.0,78,0.00,,,0.24,,2013-01-10 23:42:00,
2013-01-10 13:53:00,76.0,69.0,29.95,NE,35,5.0,10.0,78,0.00,,,0.24,,2013-01-10 23:53:00,
2013-01-10 14:02:00,76.0,69.0,29.94,NE,36,6.0,9.0,79,0.00,,,0.24,,2013-01-11 00:02:00,
2013-01-10 14:12:00,76.0,69.0,29.94,NE,36,6.0,9.0,79,0.00,,,0.24,,2013-01-11 00:12:00,
2013-01-10 14:22:00,75.0,68.0,29.94,NE,51,5.0,8.0,78,0.00,,,0.23,,2013-01-11 00:22:00,
2013-01-10 14:32:00,75.0,68.0,29.93,ENE,58,6.0,9.0,78,0.00,,,0.23,,2013-01-11 00:32:00,
2013-01-10 14:42:00,75.0,68.0,29.93,ENE,58,6.0,9.0,78,0.00,,,0.23,,2013-01-11 00:42:00,
2013-01-10 14:53:00,75.0,68.0,29.93,NE,47,8.0,12.0,79,0.00,,,0.23,,2013-01-11 00:53:00,
2013-01-10 15:02:00,75.0,68.0,29.93,ENE,57,4.0,8.0,79,0.00,,,0.23,,2013-01-11 01:02:00,
2013-01-10 15:12:00,75.0,68.0,29.93,NNE,28,5.0,8.0,78,0.00,,,0.23,,2013-01-11 01:12:00,
2013-01-10 15:22:00,75.0,68.0,29.93,NNE,28,5.0,8.0,78,0.00,,,0.23,,2013-01-11 01:22:00,
2013-01-10 15:32:00,74.0,67.0,29.94,North,360,3.0,11.0,79,0.00,,,0.23,,2013-01-11 01:32:00,
2013-01-10 15:42:00,74.0,67.0,29.94,North,360,3.0,11.0,79,0.00,,,0.23,,2013-01-11 01:42:00,
2013-01-10 15:53:00,75.0,68.0,29.94,NNE,25,1.0,4.0,80,0.00,,,0.23,,2013-01-11 01:53:00,
2013-01-10 16:02:00,76.0,69.0,29.94,NE,38,2.0,6.0,80,0.00,,,0.23,,2013-01-11 02:02:00,
2013-01-10 16:12:00,76.0,69.0,29.94,NE,38,2.0,6.0,80,0.00,,,0.23,,2013-01-11 02:12:00,
2013-01-10 16:22:00,75.0,68.0,29.94,NNE,20,6.0,9.0,78,0.00,,,0.23,,2013-01-11 02:22:00,
2013-01-10 16:32:00,74.0,67.0,29.95,East,81,6.0,13.0,80,0.00,,,0.23,,2013-01-11 02:32:00,
2013-01-10 16:42:00,74.0,67.0,29.95,East,81,6.0,13.0,80,0.00,,,0.23,,2013-01-11 02:42:00,
2013-01-10 16:53:00,74.0,67.0,29.95,NE,45,5.0,8.0,80,0.00,,,0.23,,2013-01-11 02:53:00,
2013-01-10 17:02:00,75.0,68.0,29.95,North,355,6.0,9.0,79,0.00,,,0.23,,2013-01-11 03:02:00,
2013-01-10 17:12:00,75.0,68.0,29.95,North,355,6.0,9.0,79,0.00,,,0.23,,2013-01-11 03:12:00,
2013-01-10 17:22:00,75.0,68.0,29.96,NNE,32,3.0,6.0,79,0.00,,,0.23,,2013-01-11 03:22:00,
2013-01-10 17:32:00,74.0,67.0,29.96,North,359,4.0,6.0,78,0.00,,,0.23,,2013-01-11 03:32:00,
2013-01-10 17:42:00,74.0,67.0,29.96,North,359,4.0,6.0,78,0.00,,,0.23,,2013-01-11 03:42:00,
2013-01-10 17:53:00,74.0,67.0,29.96,NNW,332,4.0,8.0,78,0.00,,,0.23,,2013-01-11 03:53:00,
2013-01-10 18:02:00,72.0,66.0,29.96,ENE,71,17.0,23.0,82,0.00,,,0.23,,2013-01-11 04:02:00,
2013-01-10 18:11:00,72.0,66.0,29.96,ENE,71,17.0,23.0,82,0.00,,,0.23,,2013-01-11 04:11:00,
2013-01-10 18:22:00,70.0,63.0,29.97,NE,50,6.0,18.0,79,0.00,,,0.23,,2013-01-11 04:22:00,
2013-01-10 18:32:00,70.0,64.0,29.97,NNW,340,2.0,6.0,81,0.01,,,0.24,,2013-01-11 04:32:00,
2013-01-10 18:42:00,70.0,64.0,29.97,NNW,340,2.0,6.0,81,0.01,,,0.24,,2013-01-11 04:42:00,
2013-01-10 18:53:00,69.0,63.0,29.97,NW,318,3.0,4.0,81,0.01,,,0.24,,2013-01-11 04:53:00,
2013-01-10 19:03:00,69.0,63.0,29.98,WNW,292,4.0,7.0,82,0.01,,,0.24,,2013-01-11 05:03:00,
2013-01-10 19:12:00,69.0,63.0,29.98,WNW,292,4.0,7.0,82,0.01,,,0.24,,2013-01-11 05:12:00,
2013-01-10 19:22:00,68.0,64.0,29.98,West,265,3.0,7.0,87,0.01,,,0.24,,2013-01-11 05:22:00,
2013-01-10 19:33:00,67.0,64.0,29.98,WNW,298,2.0,6.0,89,0.00,,,0.24,,2013-01-11 05:33:00,
2013-01-10 19:42:00,67.0,64.0,29.98,WNW,298,2.0,6.0,89,0.00,,,0.24,,2013-01-11 05:42:00,
2013-01-10 19:52:00,67.0,64.0,29.98,WNW,299,4.0,7.0,90,0.02,,,0.26,,2013-01-11 05:52:00,
2013-01-10 20:02:00,67.0,64.0,29.98,WNW,283,3.0,5.0,91,0.02,,,0.26,,2013-01-11 06:02:00,
2013-01-10 20:11:00,67.0,64.0,29.98,WNW,283,3.0,5.0,91,0.02,,,0.26,,2013-01-11 06:11:00,
2013-01-10 20:22:00,66.0,64.0,29.98,WNW,283,3.0,6.0,92,0.03,,,0.27,,2013-01-11 06:22:00,
2013-01-10 20:32:00,66.0,64.0,29.98,WNW,301,2.0,7.0,92,0.08,,,0.32,,2013-01-11 06:32:00,
2013-01-10 20:42:00,66.0,64.0,29.98,WNW,301,2.0,7.0,92,0.08,,,0.32,,2013-01-11 06:42:00,
2013-01-10 20:52:00,66.0,64.0,29.98,West,263,1.0,5.0,93,0.07,,,0.33,,2013-01-11 06:52:00,
2013-01-10 21:02:00,66.0,64.0,29.98,West,259,3.0,7.0,93,0.07,,,0.33,,2013-01-11 07:02:00,
2013-01-10 21:11:00,66.0,64.0,29.98,West,259,3.0,7.0,93,0.07,,,0.33,,2013-01-11 07:11:00,
2013-01-10 21:22:00,66.0,64.0,29.98,WNW,296,3.0,6.0,93,0.07,,,0.34,,2013-01-11 07:22:00,
2013-01-10 21:32:00,66.0,64.0,29.98,WNW,287,3.0,7.0,93,0.02,,,0.34,,2013-01-11 07:32:00,
2013-01-10 21:42:00,66.0,64.0,29.98,WNW,290,2.0,7.0,94,0.06,,,0.39,,2013-01-11 07:42:00,
2013-01-10 21:52:00,66.0,64.0,29.98,WNW,290,2.0,7.0,94,0.06,,,0.39,,2013-01-11 07:52:00,
2013-01-10 22:02:00,66.0,64.0,29.98,WNW,289,2.0,6.0,94,0.06,,,0.39,,2013-01-11 08:02:00,
2013-01-10 22:11:00,66.0,64.0,29.98,WNW,297,3.0,7.0,94,0.05,,,0.39,,2013-01-11 08:11:00,
2013-01-10 22:22:00,66.0,64.0,29.98,WNW,297,3.0,7.0,94,0.05,,,0.39,,2013-01-11 08:22:00,
2013-01-10 22:32:00,66.0,64.0,29.98,WNW,282,4.0,7.0,94,0.05,,,0.39,,2013-01-11 08:32:00,
2013-01-10 22:42:00,66.0,64.0,29.98,WNW,282,4.0,7.0,94,0.05,,,0.39,,2013-01-11 08:42:00,
2013-01-10 22:52:00,66.0,64.0,29.98,WNW,299,3.0,7.0,94,0.00,,,0.39,,2013-01-11 08:52:00,
2013-01-10 23:02:00,66.0,64.0,29.98,WNW,295,4.0,8.0,94,0.00,,,0.39,,2013-01-11 09:02:00,
2013-01-10 23:11:00,66.0,64.0,29.98,WNW,295,4.0,8.0,94,0.00,,,0.39,,2013-01-11 09:11:00,
2013-01-10 23:22:00,66.0,64.0,29.98,WNW,289,2.0,6.0,94,0.00,,,0.39,,2013-01-11 09:22:00,
2013-01-10 23:32:00,65.0,63.0,29.97,West,276,3.0,6.0,94,0.00,,,0.39,,2013-01-11 09:32:00,
2013-01-10 23:42:00,65.0,63.0,29.97,West,276,3.0,6.0,94,0.00,,,0.39,,2013-01-11 09:42:00,
2013-01-10 23:52:00,65.0,63.0,29.97,WNW,303,2.0,7.0,94,0.00,,,0.39,,2013-01-11 09:52:00,